Terminal Aerodrome Forecast
Issued by NWS Rapid City, SD

Home | Current Version | Previous Version | Graphics & Text | Print | Product List | Glossary On
Versions: 1 2 3 4 5 6 7 8 9 10 11 12 13 14 15 16 17 18 19
000
FTUS43 KUNR 241600 AAA
TAFRAP
TAF AMD
KRAP 241618Z 2416/2512 36010KT P6SM BKN020 OVC030
      TEMPO 2416/2420 2SM -SHSN OVC020
     FM250000 32010KT P6SM BKN070=

USA.gov is the U.S. government's official web portal to all federal, state and local government web resources and services.